Showing default

COSMOS 451, 5554

Orbit data source: Space-Track

COSMOS 451, 5554 is a payload satellite owned by OKB-10 (CIS) in LEO that was launched on Wed, 13 Oct 1971 UTC via a KOSMOS 11K65M launch vehicle from the Plesetsk Missile And Space Complex (PKMTR). Payload-class satellites include a variety of spacecraft equipped with specific instruments for various scientific and technological missions. These include communications satellites like Starlink; space stations such as the ISS; scientific satellites like the Hubble; Earth observation satellites from companies like Planet Labs, Umbra, and HawkEye 360; GPS; miniature CubeSats for education and research; and military/defense satellites.

Loading next visibility...
Identifier
5554, 1971-086H
Orbit
LEO
Country
Flag of CISCIS
Related business
Manufacturer
OKB-10
Mission
Spacecraft
Bus & Motor
STRELA-1 11F625, Unknown motor
Mass
60 kg wet, 60 kg dry
Launch date (UTC)
1971-10-13 (55 years ago)
Launch vehicle
KOSMOS 11K65M
Launch site
Plesetsk Missile And Space Complex (PKMTR)
Object type
Payload
Rocket body
Debris
Shape & HBR
Unknown
Radar Cross Section
Medium (>0.1 m² and <1 m²)

Expand to show TLE details & history
Last TLE update: 2 days ago

TLE from 2 days ago
0 COSMOS 451
1  5554U 71086H   26171.36504520 -.00000021  00000-0 -48927-4 0  9992
2  5554  74.0295  25.7705 0053386 238.7563 294.1520 12.34308838464077
Epoch: 2026-06-20T08:45Z
TLE epoch observation values (Epoch: 2026-06-20T08:45:39.905Z)
Latitude
7.29505°
Longitude
163.68419°
Altitude
1,515.445 km
Speed
7.116 km/s
True Right ascension
13h 34m 43s
True Declination
7° 15' 22"
Sunlit
Object was in daylight at epoch
Visualization orbit readout
Latitude
Unknown
Longitude
Unknown
Altitude
Unknown
Speed
Unknown
Apparent Right ascension
Unknown
Apparent Declination
Unknown
Sunlit
N/A
Visualization observer readout
Local Sidereal Time
23:08:18
Azimuth
Unknown
Elevation
Unknown
Doppler factor
Unknown
Orbital elements
Apogee altitude
1,570.886 km
Perigee altitude
1,486.463 km
Semi-major axis
7,906.811 km
Eccentricity
0.00534
Inclination
74.0295°
RAAN
25.7705°
Arg. of periapsis
238.7563°
True anomaly
293.59227°
Mean anomaly
294.152°
Eccentric anomaly
293.87229°
Mean motion
3.08703 °/min
Orbital period
116.62 mins
BSTAR
-0.000048927
Loading maneuver chart data...
Computing Atmospheric mass density...
Loading historical data...
Loading historical data...
Loading historical data...
Loading historical data...
Loading historical data...
Loading historical data...
Loading historical data...

Documentation

Showing up to 5 results
|